Wind_Speed
24 24 24 24 24 24 25 25 25 25 24 24 24 23 23 23 23 23 23 23 23 23 24 24 24 24 24 24 24 24 24 24 24 24 23 23 23 23 22 21 21 21 21
25 25 25 25 25 26 26 27 27 26 25 25 24 24 24 23 23 24 24 24 23 24 24 24 24 24 24 25 25 25 25 25 25 24 24 24 24 23 23 23 23 22 21
26 26 26 26 26 27 28 27 27 27 26 26 26 25 25 24 24 24 25 25 25 25 24 24 25 25 26 25 25 25 25 25 25 25 25 25 24 24 23 22 23 23 23
27 27 27 27 27 27 27 27 27 27 26 26 26 26 26 26 25 25 25 25 26 25 25 26 26 26 26 26 25 25 26 25 25 25 25 25 25 25 24 23 22 23 23
27 26 26 27 27 27 27 27 27 27 27 27 27 27 27 27 26 26 26 26 26 25 25 26 26 26 26 27 27 27 26 26 26 26 25 24 25 25 25 25 24 22 23
27 28 27 27 27 27 27 27 27 27 28 28 28 28 27 28 28 27 26 26 26 25 25 25 26 27 28 28 28 28 27 27 27 26 27 26 25 26 26 26 26 25 24
27 28 28 28 27 27 27 27 27 27 28 29 29 28 28 28 28 28 27 27 27 26 25 25 25 26 27 28 28 28 28 28 28 28 28 27 27 26 27 27 28 26 25
27 28 28 28 28 27 27 27 27 28 28 29 29 29 28 28 29 28 28 28 27 26 26 26 26 26 27 27 27 28 28 28 27 28 28 28 28 28 28 27 27 27 27
27 27 28 28 28 28 28 28 28 28 28 29 29 29 29 29 29 29 29 28 28 27 27 27 27 27 28 28 28 28 28 28 27 27 28 28 29 29 28 27 28 28 28
26 27 27 28 28 28 29 29 29 29 29 30 30 30 30 30 30 30 30 29 28 28 28 27 27 27 27 27 28 28 28 28 27 28 28 28 28 27 27 27 27 28 28
27 27 27 27 27 28 29 29 30 30 30 30 30 31 31 30 30 31 31 30 29 29 28 28 28 27 27 27 28 27 27 27 27 27 27 27 27 27 27 27 27 28 28
27 27 27 27 28 28 29 29 30 30 30 30 30 31 31 31 30 31 31 30 29 29 29 28 28 27 28 28 28 27 27 27 27 27 27 26 26 27 27 27 27 27 27
27 27 27 28 28 29 30 30 30 30 30 30 30 30 30 30 30 30 30 29 29 29 29 29 28 28 27 27 28 27 27 27 27 27 27 26 26 26 26 26 27 26 26
28 29 30 30 30 30 30 30 30 30 30 31 31 30 29 29 29 29 29 28 28 28 28 28 29 28 28 28 28 28 27 27 27 27 27 27 27 26 26 26 27 27 27
29 29 29 29 30 30 30 30 30 30 30 30 30 30 30 29 29 29 29 28 28 28 29 28 29 29 29 28 27 27 27 27 27 27 27 28 27 27 26 26 26 27 27
29 29 28 29 29 30 30 30 30 30 29 29 29 29 29 29 28 29 29 28 28 29 28 28 28 29 29 28 27 27 26 26 26 27 27 28 28 28 28 27 27 28 27
29 29 28 29 29 30 30 30 30 30 30 29 28 29 29 28 28 29 28 28 28 28 28 28 28 28 27 26 26 26 26 26 26 26 26 27 28 28 28 28 27 27 27
30 30 30 30 29 29 28 29 29 29 29 28 27 27 27 27 27 27 27 27 27 27 27 27 26 26 26 26 26 26 26 26 25 25 25 26 27 27 27 26 27 27 27
30 30 30 30 30 29 28 28 28 28 27 26 26 25 25 25 26 25 25 25 26 25 25 25 25 25 25 25 26 26 26 26 25 25 25 25 26 27 27 27 27 27 27
29 29 29 30 30 30 29 28 27 26 26 25 24 24 24 24 23 23 24 24 24 24 24 24 25 25 26 26 26 26 26 25 25 25 25 25 26 26 26 27 27 28 28
30 29 29 30 30 30 29 29 28 27 26 24 24 23 23 22 23 23 23 24 24 24 24 24 25 25 26 26 25 25 25 25 25 25 25 26 26 26 26 27 27 28 30
29 28 28 29 30 29 28 28 28 27 25 24 23 23 23 23 23 23 23 23 23 23 24 25 25 25 25 25 25 25 25 25 24 24 25 25 25 25 26 27 27 28 29
28 28 28 28 28 27 27 26 26 25 25 24 24 23 23 23 22 23 23 23 23 23 23 23 24 24 24 24 24 23 23 23 24 24 25 25 25 26 26 26 27 27 27
26 26 26 26 27 26 26 26 26 26 25 25 24 24 23 23 23 22 23 23 23 23 23 23 23 23 23 22 22 23 22 22 23 23 24 24 25 25 24 24 25 26 27
26 26 26 26 26 26 25 26 26 26 25 25 24 24 23 23 23 23 23 23 23 23 23 23 23 23 22 22 22 22 22 22 22 23 24 24 24 24 24 24 25 25 26
26 26 26 26 25 25 25 25 25 25 24 24 24 23 23 23 23 22 22 22 22 23 22 22 22 22 22 22 22 22 22 22 22 22 23 23 23 23 24 24 24 24 24
Wind_Direction
284 284 285 285 284 286 288 286 285 284 284 282 280 280 281 283 283 283 284 284 283 282 278 273 269 268 269 270 271 271 271 271 271 270 270 269 270 270 270 270 270 269 268
282 283 283 283 284 285 287 286 285 285 284 282 280 279 280 282 283 283 283 283 283 283 279 274 269 268 268 269 271 272 273 273 272 271 269 267 267 266 268 268 269 269 268
280 280 282 283 284 285 287 285 284 284 282 281 281 280 279 280 282 283 283 283 282 281 279 275 271 268 268 269 270 271 273 273 272 270 269 267 265 265 266 267 268 268 268
280 280 282 283 284 285 285 285 283 282 281 281 282 281 280 279 280 283 283 283 282 280 278 275 272 270 268 268 270 272 273 273 271 271 270 268 266 265 265 266 267 267 266
281 282 283 283 284 284 284 284 283 282 281 281 282 281 280 280 280 281 282 282 282 280 278 276 273 271 270 269 270 271 272 272 271 270 270 269 268 267 266 264 265 265 265
281 282 283 285 285 285 284 284 283 282 281 281 282 282 282 281 280 281 281 281 282 281 279 278 274 274 271 269 270 269 270 270 270 270 269 269 270 268 267 265 263 263 264
281 281 283 285 286 286 286 285 283 283 282 282 283 282 282 282 281 280 281 281 281 280 280 278 277 276 274 271 271 270 269 270 269 269 269 269 268 269 268 265 262 261 262
282 283 284 285 286 286 287 286 284 283 282 283 284 284 283 283 282 281 281 281 280 278 277 277 278 276 274 271 271 271 269 269 269 269 269 268 267 269 269 267 264 263 262
284 284 285 285 285 286 285 284 283 283 283 284 285 284 284 283 283 281 280 280 279 278 275 276 277 276 275 272 272 271 269 268 268 269 269 268 268 268 268 266 265 264 262
285 285 284 284 287 288 288 287 286 285 285 284 284 283 283 284 283 281 280 279 278 277 274 273 274 274 274 272 273 272 269 268 268 268 268 268 268 267 266 265 264 262 261
284 284 284 286 289 291 291 290 289 287 286 284 283 283 283 283 282 280 279 277 277 276 273 273 274 272 272 272 272 271 269 267 266 265 266 267 268 267 267 265 264 263 262
283 284 286 288 290 292 293 292 290 290 288 286 284 283 283 283 282 280 278 277 276 274 273 273 274 272 272 271 271 270 269 267 265 265 265 266 267 267 267 266 265 264 263
285 286 287 288 289 292 293 292 290 290 289 288 286 284 283 283 281 278 276 276 276 274 272 272 273 273 271 269 269 269 269 269 266 265 264 264 264 264 265 265 265 263 264
286 287 287 287 288 291 291 292 292 291 289 288 287 284 284 282 279 277 276 276 276 274 272 271 272 271 270 269 269 269 269 269 266 264 263 263 263 265 266 265 265 264 265
289 288 289 290 289 290 291 293 294 293 292 290 288 285 282 281 280 277 276 277 277 275 273 272 271 270 269 269 268 269 270 268 267 264 262 262 262 264 267 266 265 265 263
288 288 289 291 291 292 293 295 296 296 294 292 288 286 283 281 279 277 277 278 278 278 275 271 270 271 270 270 269 269 269 268 268 267 265 263 262 262 264 267 267 264 263
287 287 289 291 292 293 294 295 296 296 296 294 290 286 284 282 279 278 277 277 278 277 276 274 271 269 269 269 270 270 270 268 268 268 266 265 263 262 264 264 264 263 263
287 287 288 291 291 293 294 295 296 296 296 294 291 290 286 284 281 279 277 275 275 275 275 273 271 269 267 268 270 270 269 268 269 269 267 265 262 261 262 262 262 262 262
287 287 289 290 290 292 294 296 296 296 294 292 292 291 290 287 283 280 276 274 275 274 274 272 270 269 268 268 270 270 269 269 269 269 268 265 262 261 261 260 261 262 263
287 287 288 290 290 291 292 293 294 294 293 291 291 292 293 290 284 280 276 273 274 274 273 273 272 270 268 270 271 270 270 269 269 269 268 266 265 262 260 260 261 262 262
287 288 289 291 291 290 290 290 291 292 292 291 291 291 291 289 286 283 279 276 275 276 276 273 271 271 270 271 272 272 271 269 269 269 269 268 266 263 260 260 263 261 260
288 287 288 290 291 290 289 288 289 289 289 288 288 287 289 288 286 284 281 279 278 278 278 277 275 274 272 269 269 270 270 269 269 269 269 268 267 264 262 263 265 263 263
287 287 288 289 289 288 287 287 288 288 287 286 287 287 288 288 285 285 283 280 279 279 280 280 279 277 274 271 270 270 271 268 268 269 269 268 269 268 266 267 265 264 264
289 290 291 291 289 289 288 287 288 287 286 286 285 285 284 284 285 285 283 281 279 278 279 278 278 277 275 272 271 269 269 269 269 269 270 271 269 269 270 269 267 265 265
291 291 292 292 290 290 290 288 286 284 284 284 284 284 283 284 285 285 284 283 281 278 278 277 277 276 275 273 272 270 270 270 271 270 269 270 270 270 270 269 269 268 267
290 290 291 290 289 290 289 288 285 283 281 281 282 282 283 284 284 283 283 283 281 280 279 278 278 277 275 273 273 272 272 271 271 270 269 270 273 272 269 269 269 268 268
Height
5777 5775 5773 5771 5770 5768 5767 5765 5763 5762 5761 5759 5759 5758 5757 5757 5756 5755 5754 5753 5753 5752 5751 5751 5751 5751 5752 5753 5753 5753 5753 5753 5753 5753 5752 5751 5751 5750 5750 5751 5751 5751 5751
5770 5768 5766 5764 5763 5761 5759 5757 5756 5754 5753 5752 5751 5750 5750 5749 5748 5748 5747 5746 5746 5745 5744 5744 5744 5744 5744 5745 5745 5746 5745 5745 5745 5745 5744 5744 5743 5743 5743 5744 5744 5744 5745
5761 5760 5758 5757 5755 5753 5751 5749 5747 5746 5745 5744 5743 5743 5742 5742 5741 5740 5740 5739 5738 5737 5736 5736 5736 5736 5737 5737 5737 5737 5737 5737 5737 5737 5736 5736 5736 5736 5736 5737 5737 5737 5738
5753 5751 5750 5749 5747 5745 5743 5741 5739 5738 5737 5736 5735 5735 5734 5734 5733 5733 5732 5731 5730 5729 5729 5728 5728 5728 5728 5729 5729 5729 5729 5729 5729 5729 5729 5728 5728 5729 5729 5730 5730 5730 5731
5744 5743 5742 5740 5738 5737 5735 5733 5731 5730 5729 5728 5727 5727 5726 5726 5725 5725 5724 5723 5722 5722 5721 5721 5720 5720 5720 5720 5721 5721 5720 5720 5720 5721 5720 5720 5721 5721 5722 5722 5723 5723 5724
5736 5735 5733 5732 5730 5728 5726 5725 5723 5722 5721 5720 5719 5718 5718 5717 5717 5716 5716 5715 5714 5714 5713 5712 5712 5712 5712 5712 5712 5712 5712 5712 5712 5712 5712 5712 5713 5713 5714 5714 5715 5716 5717
5728 5726 5725 5723 5722 5720 5718 5717 5715 5714 5713 5711 5711 5710 5709 5708 5708 5707 5707 5706 5706 5705 5705 5704 5704 5703 5703 5703 5703 5703 5703 5703 5704 5704 5704 5704 5705 5705 5705 5706 5706 5707 5709
5719 5718 5717 5715 5713 5712 5710 5708 5707 5706 5704 5703 5702 5701 5700 5700 5699 5698 5698 5697 5697 5697 5696 5696 5695 5695 5695 5694 5694 5694 5694 5695 5695 5695 5695 5695 5695 5696 5696 5697 5697 5699 5700
5712 5710 5708 5707 5705 5703 5702 5701 5699 5697 5696 5694 5693 5692 5691 5691 5690 5689 5688 5688 5688 5688 5688 5687 5687 5686 5686 5685 5685 5685 5685 5685 5685 5686 5686 5686 5686 5687 5688 5689 5689 5690 5691
5704 5702 5701 5699 5697 5695 5693 5692 5690 5689 5687 5686 5684 5683 5682 5681 5680 5680 5679 5679 5679 5679 5679 5678 5678 5677 5677 5676 5676 5676 5676 5677 5677 5677 5677 5677 5678 5678 5679 5680 5681 5682 5683
5696 5694 5693 5691 5689 5686 5684 5683 5681 5679 5678 5676 5675 5674 5672 5671 5671 5670 5669 5669 5669 5669 5669 5669 5668 5668 5668 5667 5667 5667 5667 5668 5668 5668 5669 5669 5669 5670 5671 5671 5672 5673 5674
5688 5686 5685 5683 5681 5678 5676 5674 5672 5670 5668 5666 5665 5663 5662 5661 5660 5659 5659 5659 5659 5659 5659 5659 5659 5659 5659 5658 5658 5658 5658 5658 5659 5660 5660 5661 5661 5662 5662 5663 5663 5664 5665
5680 5678 5676 5675 5672 5670 5667 5665 5663 5661 5658 5656 5655 5653 5652 5651 5650 5649 5649 5649 5649 5649 5650 5650 5650 5649 5649 5649 5649 5649 5649 5649 5650 5651 5652 5652 5653 5653 5653 5654 5655 5656 5656
5672 5670 5668 5666 5664 5661 5659 5656 5654 5651 5648 5646 5645 5643 5642 5641 5640 5639 5639 5639 5640 5640 5640 5640 5640 5640 5640 5640 5640 5640 5641 5641 5641 5642 5643 5644 5644 5645 5645 5646 5647 5647 5648
5664 5662 5660 5658 5655 5653 5650 5647 5645 5642 5639 5637 5635 5633 5632 5632 5631 5630 5630 5630 5630 5630 5630 5631 5631 5630 5630 5631 5631 5631 5632 5632 5632 5633 5634 5634 5635 5636 5637 5637 5638 5639 5640
5656 5654 5652 5649 5647 5644 5641 5639 5635 5632 5629 5627 5625 5624 5623 5622 5621 5621 5621 5621 5621 5620 5620 5621 5621 5621 5621 5622 5622 5622 5623 5623 5623 5624 5624 5625 5626 5627 5628 5629 5629 5630 5631
5647 5645 5643 5641 5638 5636 5633 5630 5627 5624 5620 5618 5616 5614 5613 5612 5612 5611 5611 5612 5611 5611 5611 5611 5611 5611 5612 5612 5613 5613 5614 5614 5614 5615 5615 5616 5617 5618 5619 5620 5620 5621 5622
5638 5636 5634 5632 5629 5627 5624 5621 5618 5615 5612 5610 5608 5606 5604 5603 5603 5603 5603 5603 5603 5602 5602 5602 5602 5603 5603 5604 5604 5605 5605 5605 5605 5606 5606 5607 5608 5609 5610 5611 5612 5612 5613
5630 5628 5625 5623 5621 5619 5616 5613 5610 5607 5605 5602 5600 5598 5597 5595 5595 5595 5594 5595 5594 5594 5594 5594 5594 5595 5595 5595 5596 5596 5596 5596 5597 5597 5598 5598 5599 5600 5601 5602 5603 5604 5604
5621 5619 5616 5614 5612 5610 5608 5605 5603 5600 5597 5595 5593 5591 5590 5588 5588 5587 5587 5587 5586 5586 5586 5586 5586 5586 5587 5587 5587 5587 5588 5588 5588 5588 5589 5590 5590 5591 5592 5593 5594 5595 5595
5611 5610 5607 5605 5603 5601 5599 5597 5595 5593 5591 5588 5587 5585 5584 5582 5581 5581 5580 5580 5579 5579 5579 5578 5578 5579 5579 5579 5579 5579 5579 5580 5580 5580 5581 5581 5581 5582 5583 5584 5585 5585 5586
5603 5601 5599 5597 5595 5593 5591 5589 5587 5585 5583 5582 5580 5579 5577 5576 5575 5574 5573 5573 5572 5572 5571 5571 5571 5571 5571 5571 5571 5571 5571 5571 5571 5572 5572 5572 5573 5573 5574 5575 5575 5576 5577
5594 5592 5590 5588 5586 5584 5582 5581 5579 5577 5576 5575 5574 5572 5571 5569 5568 5568 5567 5566 5565 5564 5564 5564 5563 5563 5563 5563 5563 5563 5563 5564 5564 5564 5564 5564 5564 5565 5565 5566 5566 5567 5568
5585 5583 5582 5580 5578 5576 5574 5573 5571 5570 5569 5567 5566 5565 5564 5563 5562 5561 5560 5559 5558 5557 5557 5556 5556 5556 5556 5556 5556 5556 5556 5556 5556 5556 5556 5556 5556 5557 5557 5558 5558 5559 5559
5577 5575 5573 5572 5570 5568 5567 5565 5564 5563 5561 5560 5559 5558 5557 5555 5554 5553 5552 5551 5550 5550 5549 5549 5548 5548 5548 5548 5548 5548 5548 5548 5548 5548 5548 5549 5549 5549 5550 5550 5550 5551 5551
5569 5567 5565 5563 5562 5560 5559 5557 5556 5555 5554 5553 5551 5550 5549 5548 5547 5546 5545 5544 5543 5542 5542 5541 5541 5541 5541 5541 5541 5541 5541 5541 5541 5541 5541 5542 5542 5542 5542 5542 5543 5543 5543